CDT,Max TemperatureF,Mean TemperatureF,Min TemperatureF,Max Dew PointF,MeanDew PointF,Min DewpointF,Max Humidity, Mean Humidity, Min Humidity, Max Sea Level PressureIn, Mean Sea Level PressureIn, Min Sea Level PressureIn, Max VisibilityMiles, Mean VisibilityMiles, Min VisibilityMiles, Max Wind SpeedMPH, Mean Wind SpeedMPH, Max Gust SpeedMPH,PrecipitationIn, CloudCover, Events, WindDirDegrees
2013-8-1,73,65,55,55,52,45,88,64,36,29.99,29.96,29.91,10,10,10,15,7,23,0.01,2,,278
2013-8-2,78,66,55,61,55,50,94,68,39,29.97,29.89,29.85,10,10,2,13,4,20,0.25,4,Rain,281
2013-8-3,73,62,51,55,50,46,94,65,38,30.14,30.06,29.98,10,10,10,16,4,18,0.00,2,,319
2013-8-4,69,60,51,55,52,46,94,74,43,30.24,30.18,30.15,10,10,0,13,3,,0.00,2,Fog,77
2013-8-5,71,60,50,59,54,46,94,77,60,30.14,30.00,29.88,10,10,2,12,3,16,0.00,6,Rain,185
2013-8-6,80,70,60,64,61,57,94,74,51,29.89,29.84,29.80,10,9,5,9,3,,0.00,4,,227
2013-8-7,77,68,60,68,60,55,94,76,53,30.00,29.86,29.77,10,9,1,14,6,29,0.59,4,Rain,302
2013-8-8,71,63,55,59,51,43,94,66,35,30.07,30.03,30.00,10,8,2,9,2,,0.00,1,,91
2013-8-9,77,64,51,59,53,46,94,66,44,30.07,30.00,29.98,10,10,10,13,3,18,0.00,3,,283
2013-8-10,71,61,51,57,54,50,100,75,50,30.16,30.13,30.08,10,10,4,7,1,16,0.00,4,,113
2013-8-11,68,60,51,61,56,50,94,86,60,30.15,30.11,30.05,10,9,4,13,1,16,0.19,5,Rain,201
2013-8-12,78,68,59,61,57,50,100,72,44,30.03,29.97,29.90,10,9,0,17,2,25,0.00,5,Fog,338
2013-8-13,66,57,48,52,46,43,94,67,43,30.18,30.10,30.02,10,10,10,14,7,24,0.00,3,,351
2013-8-14,69,56,42,50,45,41,93,69,40,30.23,30.19,30.15,10,10,7,10,2,,0.00,2,,8
2013-8-15,75,63,51,52,48,37,94,59,27,30.16,30.12,30.08,10,10,10,9,2,,0.00,3,,278
2013-8-16,77,64,51,55,52,46,94,68,34,30.21,30.17,30.13,10,10,5,8,1,,0.00,2,,87
2013-8-17,78,64,50,55,51,45,100,68,32,30.27,30.23,30.20,10,9,1,9,2,,0.00,0,,140
2013-8-18,78,64,50,55,52,45,100,68,32,30.24,30.18,30.11,10,9,0,10,1,,0.00,0,Fog,123
2013-8-19,80,66,51,59,55,48,94,67,37,30.11,30.07,30.03,10,10,7,14,2,16,0.00,1,,227
2013-8-20,86,72,59,63,58,54,88,65,33,30.09,30.05,30.02,10,10,3,13,3,22,0.00,2,,207
2013-8-21,87,76,66,64,62,59,88,63,43,30.04,30.01,29.91,10,10,10,18,7,30,0.02,3,Rain,208
2013-8-22,75,65,55,64,60,50,94,80,49,30.15,30.07,30.01,10,10,7,13,3,16,0.05,2,Rain,360
2013-8-23,77,64,50,59,53,46,94,72,39,30.22,30.18,30.15,10,9,2,8,2,,0.00,0,,95
2013-8-24,82,66,50,61,53,46,94,69,34,30.28,30.23,30.19,10,10,1,14,2,16,0.00,0,,152
2013-8-25,87,76,64,63,59,54,77,53,33,30.21,30.15,30.09,10,10,10,17,9,28,0.00,0,,216
2013-8-26,89,80,71,70,64,61,70,60,40,30.14,30.04,29.96,10,10,10,15,11,23,0.00,1,,233
2013-8-27,93,81,69,70,67,63,88,62,38,29.97,29.89,29.80,10,10,7,21,8,26,0.03,1,,223
2013-8-28,82,73,64,68,64,57,94,73,45,30.07,29.98,29.86,10,9,3,12,5,17,0.00,5,,31
2013-8-29,87,74,60,64,62,59,94,69,40,30.10,30.06,30.00,10,9,2,10,2,,0.00,0,,139
2013-8-30,91,78,62,72,64,59,88,69,43,29.97,29.86,29.80,10,10,7,16,7,21,0.06,3,Rain,238
2013-8-31,77,68,59,63,59,55,94,79,57,29.90,29.87,29.82,10,9,0,12,2,,0.00,5,Fog,61